ONEWEB-0145 (47291 NORAD) Tracking and Keplerian Element Data
This shows tracking and keplerian element data for the satellite.
Feedback or suggestion? Click here.
Element | Value |
Catalog | 47291 |
Name | ONEWEB-0145 |
Epoch Orbit | 178 |
Epoch Day | 60.91667824 |
Epoch Year | 2021 |
RAAN | 16.1471 |
Inclination | 87.7319 |
Eccentricity | 0.0013051 |
Argument of Perigee | 6.1701 |
Mean Anonmoly | 343.335 |
Mean Motion | 14.1195291 |
Decay Rate | -0.01165686 |
L1 | 1 47291U 20100AK 21060.91667824 -.01165686 00000-0 -67731+0 0 9996 |
L2 | 2 47291 87.7319 16.1471 0013051 6.1701 343.3350 14.11952910 1785 |
Live tracking and technical data element details for ONEWEB-0145 (NORAD 47291). ONEWEB-0145 can be tracked NOW for your location showing map with azimuth and elevation plus other details from your city location.
Track the satellite on the map from your city or location and see movement details for azimuth, elevation, latitude, longitude, range, height, and movement on the map or in text.
IsCatalogInMostPopularTable: catalog: 47291, numindb: 24
Update: records affected: 1
GetName: 47291 ONEWEB-0145
Hit Count: updated at: Tue, 02 Mar 2021 14:39:49 GMT